Weather History for KSDM - October, 2012

Change the Weather History Date:

Tuesday, October 9, 2012

  Actual Average Record
Temperature  
Mean Temperature 67 °F -  
Max Temperature 73 °F 74 °F 94 °F (1999)
Min Temperature 61 °F 54 °F 51 °F (2007)
Cooling Degree Days 2    
Growing Degree Days 17 (Base 50)    
Moisture  
Dew Point 57 °F    
Average Humidity 72    
Maximum Humidity 84    
Minimum Humidity 52    
Precipitation  
Precipitation 0.00 in - - ()
Sea Level Pressure  
Sea Level Pressure 29.98 in    
Wind  
Wind Speed 3 mph (West)    
Max Wind Speed 10 mph    
Max Gust Speed 17 mph    
Visibility 10 miles    
Events      
Averages and records for this station are not official NWS values.
T = Trace of Precipitation, MM = Missing Value Source: NWS Daily Summary

Daily Weather History Graph

Daily Weather History Graph

Search for Another Location

Airport or City:

Trip Planner

Search our weather history database for the weather conditions in past years. The results will help you decide how hot, cold, wet, or windy it might be!

Date:

Astronomy

Oct. 09, 2012 Rise Set
Actual Time 6:47 AM PDT 6:21 PM PDT
Civil Twilight 6:23 AM PDT 6:46 PM PDT
Nautical Twilight 5:54 AM PDT 7:14 PM PDT
Astronomical Twilight 5:26 AM PDT 7:43 PM PDT
Moon 12:48 AM PDT (10/9) 2:34 PM PDT (10/9)
Length of Visible Light 12h 23m
Length of Day
11h 33m
Waning Crescent, 35% of the Moon is Illuminated
Oct 9
Waning Crescent
Oct 15
New
Oct 21
First Quarter
Oct 29
Full
Nov 6
Last Quarter

Hourly Weather History & Observations

Time (PDT) Temp. Dew Point Humidity Pressure Visibility Wind Dir Wind Speed Gust Speed Precip Events Conditions
12:44 AM 64.4 °F 59.0 °F 83% 29.99 in 10.0 mi West 5.8 mph - N/A   Overcast
12:53 AM 64.9 °F 59.0 °F 81% 29.97 in 10.0 mi West 4.6 mph - N/A   Overcast
1:53 AM 64.9 °F 57.0 °F 75% 29.98 in 10.0 mi Calm Calm - N/A   Mostly Cloudy
2:53 AM 64.9 °F 57.0 °F 75% 29.97 in 5.0 mi Calm Calm - N/A   Haze
3:53 AM 64.9 °F 55.9 °F 73% 29.97 in 10.0 mi Calm Calm - N/A   Overcast
4:53 AM 64.0 °F 55.0 °F 73% 29.96 in 10.0 mi Calm Calm - N/A   Mostly Cloudy
5:37 AM 64.4 °F 55.4 °F 73% 29.98 in 10.0 mi Calm Calm - N/A   Scattered Clouds
5:53 AM 62.1 °F 55.0 °F 78% 29.97 in 10.0 mi Calm Calm - N/A   Clear
6:53 AM 61.0 °F 55.0 °F 81% 29.98 in 10.0 mi Calm Calm - N/A   Clear
7:53 AM 64.9 °F 55.9 °F 73% 29.99 in 10.0 mi SE 3.5 mph - N/A   Mostly Cloudy
8:53 AM 66.9 °F 55.9 °F 68% 29.99 in 10.0 mi Calm Calm - N/A   Overcast
9:53 AM 69.1 °F 55.9 °F 63% 30.00 in 10.0 mi Calm Calm - N/A   Mostly Cloudy
10:07 AM 69.8 °F 55.4 °F 60% 30.01 in 10.0 mi Calm Calm - N/A   Partly Cloudy
10:53 AM 71.1 °F 55.0 °F 57% 29.98 in 10.0 mi Calm Calm - N/A   Clear
11:53 AM 73.9 °F 55.0 °F 52% 29.96 in 10.0 mi WSW 6.9 mph - N/A   Clear
12:53 PM 73.0 °F 55.9 °F 55% 29.95 in 10.0 mi West 10.4 mph - N/A   Clear
1:53 PM 73.0 °F 57.9 °F 59% 29.94 in 10.0 mi WSW 10.4 mph - N/A   Clear
2:53 PM 72.0 °F 59.0 °F 64% 29.95 in 10.0 mi West 10.4 mph 17.3 mph N/A   Partly Cloudy
3:53 PM 71.1 °F 59.0 °F 66% 29.94 in 10.0 mi WNW 6.9 mph - N/A   Scattered Clouds
4:53 PM 68.0 °F 60.1 °F 76% 29.94 in 10.0 mi WNW 4.6 mph - N/A   Scattered Clouds
5:53 PM 66.9 °F 59.0 °F 76% 29.94 in 10.0 mi West 8.1 mph - N/A   Clear
6:53 PM 64.0 °F 57.9 °F 80% 29.96 in 10.0 mi West 6.9 mph - N/A   Scattered Clouds
7:53 PM 63.0 °F 57.9 °F 84% 29.98 in 10.0 mi West 3.5 mph - N/A   Partly Cloudy
8:53 PM 63.0 °F 57.0 °F 81% 29.99 in 10.0 mi WSW 3.5 mph - N/A   Mostly Cloudy
9:53 PM 63.0 °F 55.9 °F 78% 29.99 in 10.0 mi Calm Calm - N/A   Mostly Cloudy
10:00 PM 62.6 °F 55.4 °F 77% 30.00 in 10.0 mi Calm Calm - N/A   Partly Cloudy
10:20 PM 62.6 °F 55.4 °F 77% 30.00 in 10.0 mi West 4.6 mph - N/A   Mostly Cloudy
10:53 PM 64.0 °F 55.9 °F 75% 29.99 in 10.0 mi Calm Calm - N/A   Mostly Cloudy
11:02 PM 62.6 °F 55.4 °F 77% 30.00 in 10.0 mi Calm Calm - N/A   Scattered Clouds
11:16 PM 62.6 °F 55.4 °F 77% 29.99 in 10.0 mi Calm Calm - N/A   Mostly Cloudy
11:53 PM 64.0 °F 55.9 °F 75% 29.99 in 10.0 mi Calm Calm - N/A   Mostly Cloudy